AQI (40)

Current Conditions for Foresthill, CA. Clear skies, Dry   
Visibility: 10 miles
Breezy            
Space WX Alerts: CONTINUED ALERT:  Electron 2MeV Integral Flux exceeded 1000pfu ( Latest Alert ) - Issue Time: 2022 Jan 22 0538 UTC

  Summary / Temperature 

Current Temperature
45.5°F
7.5°C
(24/hr Ago)
42.6°F
(Apparent temp)
35.4°F
Cool
Wind Chill Graphs
42.9°F 

45.5°F/ 7.5°C
 --- Virtual Temp: 46.3°F ---

 Temp Rate:

 24/hr Difference:

 Avg Running Temp:

 Todays High:

 Todays Low:

 Y-days High:

 Y-days Low:

 Todays WChill:

 Y-days WChill:

 Evapotranspiration:

-1.6°F/hr 

+2.9°F

46.1°F

50.8°F 3:43am

44.7°F 5:58am

62.9°F 2:12pm

42.4°F 6:19am

36.4°F 5:57am

35.5°F 11:21pm

0.030 in

115' Above Ground

 Temperature:

 6'AGL VRS 115'AGL:

 Avg Running Temp:

 Humidity:

 Todays High:

 Todays Low:

 Y-days High:

 Y-days Low:

55.0°F 

+9.5°F

55.0°F

0% 

55.0°F 12:00am

55.0°F 12:00am

63.0°F 2:08pm

52.0°F 9:32am

Temp & Humidity Graphs

  Wind 

Wind Speed

 Calm

Gusting to

 21.0 mph

Wind from ESE

115°  ESE

Calm

 Avg speed:

 Wind Run:

 Peak Gust:

  9.0 mph 

71.0 miles

  40.0 mph 3:53am

  Almanac  

Moon age: 19 days,3 hours,28 minutes,80%

Waning Gibbous
80%
Illuminated
19 days in cycle

 Moonrise:

 Moonset:

 Sunrise:

 Sunset:

 Solar Noon:

10:09pm

10:08am

7:14am

5:10pm

12:15pm

1min 41s more daylight tomorrow 

  Solar Radiation 

(Current Solar)
  No Sun Light
(Todays High)
 None@12:00am

Rain

 Rain Today:

 Rain Rate (/hr):

 Rain last hour:

 Rain Yesterday:

 This Month:

 Season Total:

14 Days Since Last Rain Day

0.00 in

0.000 in

0.00 in

0.00 in

1.20 in

29.66 in

Updated Time

Updated: 1/22/22  6:36am

(Updated  sec ago)

Humidity & Barometer

 Humidity:

 Wetbulb:

 Dew Point:

 Barometer:

35% 

37.9°F 

19.4°F 

30.193 inHg 

 Baro Trend:  Rising Slowly 
Northern Calif
Preparedness
Fire 
Level 

    UV Index  

(Current UV)
0.0  None
(Todays High) @ 12:00am
0.0   None

National Weather Service Forecast

Today

Today: Sunny
Sunny
Tonight

Tonight: Clear
Clear
Sunday

Sunday: Sunny
Sunny
Sunday
Night
Sunday Night: Clear
Clear
Monday

Monday: Sunny
Sunny
Monday
Night
Monday Night: Mostly Clear
Mostly Clear
Hi 62 °F ↓ Lo 40 °F ↑ Hi 60 °F ↓ Lo 40 °F Hi 59 °F Lo 40 °F

Foresthill Probe 2 Stats  
Foresthill Probe 2: is located on Thomas Street
at 3000 feet. The main Foresthill Weather site
is located on Melody ln at the 2860 foot elevation

Light Air
43.7°F
6.5°C
Temp Rate:
-1.7°F
6.0 mph
Gusting to
11.0 mph
(Humidity)
40%
Wind from NE
38°  NE
Updated: 22/01/22 - 06:36:40
 Todays High: 48.9°F 03:39
 Todays Low: 43.0°F 06:10
 Rain Today: 0.00 in
 Season Total: 29.24 in

Foresthill Wx: Monthly,Yearly, Highs and Lows 

Foresthill  
This Weather Data is coming from the main Foresthill
Weather site located on Melody ln at the 2860 foot
elevation
Not Foresthill Probe 2
Weather Data
Month
  High
Month
  Low
Year
High
Year
Low
Temp 67.7°F
1/12/22
27.3°F
1/1/22
67.7°F
1/12/22
27.3°F
1/1/22
Humidity 100%
1/4/22
21%
1/21/22
100%
1/4/22
21%
1/21/22
Heat Index 67.4°F
1/12/22
32.0°F
1/1/22
67.4°F
1/12/22
32.0°F
1/1/22
Wind Chill 67.7°F
1/12/22
14.3°F
1/1/22
67.7°F
1/12/22
14.3°F
1/1/22
Wind Gust 40 mph
1/22/22
0 mph
1/1/22
40 mph
1/22/22
0 mph
1/1/22
Barometer 30.55 in
1/10/22
29.96 in
1/7/22
30.55 in
1/10/22
29.96 in
1/7/22
ET 0.10 in
1/14/22
0.00 in
1/1/22
0.10 in
1/14/22
0.00 in
1/1/22
Dew Point 48.2°F
1/6/22
15.4°F
1/22/22
48.2°F
1/6/22
15.4°F
1/22/22
Visible Satellite Pacific Satellite US Radar Satellite Imagery Sacramento,CA.  (click to enlarge)
NWS Weather Forecast - Summary
Updated: Saturday, January 22, 2022 - 1:30am PST
NWS Weather Forecast: Today and Tonight (Updated: Sat, 22-Jan-2022 3:17am PST)
Today

Today: Sunny
Sunny

Hi 62 °F ↓
NWS forecast: Sunny. High near 62, with temperatures falling to around 53 in the afternoon. Northeast wind around 10 mph, with gusts as high as 18 mph.
Tonight

Tonight: Clear
Clear

Lo 40 °F ↑
NWS forecast: Clear. Low around 40, with temperatures rising to around 43 overnight. East northeast wind 9 to 14 mph, with gusts as high as 20 mph.
YR.NO 10 Day Weather forecast
Last update: 01/22/2022 @ 01:49
Next update: 01/22/2022 @ 07:49
Provided by: 22
      Temperature Precipitation Pressure Wind  
Today
01/22/2022
03:00 06:00 39°F   30.20 inHg Moderate breeze from east-northeast 13 mph
  06:00 12:00 41°F   30.17 inHg Moderate breeze from east-northeast 13 mph
  12:00 18:00 54°F   30.13 inHg Light air from west-northwest 3 mph
  18:00 00:00 46°F   30.17 inHg Gentle breeze from east-northeast 12 mph
    (Click to enlarge)
meteogram

    Forecast for next 9 days

      Temperature Precip Pressure Wind  
Sunday
01/23/2022
00:00 06:00 41°F   30.22 inHg Light breeze from east 7 mph
  06:00 12:00 36°F   30.25 inHg Gentle breeze from east-northeast 8 mph
  12:00 18:00 59°F   30.26 inHg Light air from west 2 mph
  18:00 00:00 45°F   30.27 inHg Light air from east-northeast 2 mph
      Temperature Precip Pressure Wind  
Monday
01/24/2022
00:00 06:00 34°F   30.27 inHg Gentle breeze from east 8 mph
  06:00 12:00 30°F   30.22 inHg Light breeze from east 5 mph
  10:00 16:00 52°F   30.23 inHg Light air from southeast 1 mph
  16:00 22:00 52°F   30.13 inHg Light air from west-southwest 3 mph
  22:00 04:00 32°F   30.14 inHg Light breeze from east 4 mph
      Temperature Precip Pressure Wind  
Tuesday
01/25/2022
04:00 10:00 30°F   30.10 inHg Light breeze from east 5 mph
  10:00 16:00 50°F   30.07 inHg Light air from northeast 1 mph
  16:00 22:00 52°F   30.01 inHg Light air from west-southwest 3 mph
  22:00 04:00 30°F   30.08 inHg Light air from east 3 mph
      Temperature Precip Pressure Wind  
Wednesday
01/26/2022
04:00 10:00 32°F   30.06 inHg Light breeze from east-northeast 7 mph
  10:00 16:00 55°F   30.11 inHg Light air from east-northeast 2 mph
  16:00 22:00 55°F   30.09 inHg Light air from west 2 mph
  22:00 04:00 36°F   30.13 inHg Light breeze from east-northeast 6 mph
      Temperature Precip Pressure Wind  
Thursday
01/27/2022
04:00 10:00 30°F   30.13 inHg Light breeze from east-northeast 6 mph
  10:00 16:00 54°F   30.15 inHg Light breeze from east 4 mph
  16:00 22:00 55°F   30.11 inHg Light air from southwest 2 mph
  22:00 04:00 36°F   30.14 inHg Light breeze from east 6 mph
      Temperature Precip Pressure Wind  
Friday
01/28/2022
04:00 10:00 34°F   30.17 inHg Light breeze from east 6 mph
  10:00 16:00 46°F   30.20 inHg Light air from south 2 mph
  16:00 22:00 46°F 0.10 in 30.19 inHg Light breeze from south-southwest 7 mph
  22:00 04:00 41°F 0.03 in 30.25 inHg Light breeze from south-southeast 5 mph
      Temperature Precip Pressure Wind  
Saturday
01/29/2022
04:00 10:00 41°F   30.27 inHg Light air from southeast 3 mph
  10:00 16:00 46°F   30.31 inHg Light breeze from south 4 mph
  16:00 22:00 48°F   30.23 inHg Light breeze from west 4 mph
  22:00 04:00 32°F   30.23 inHg Light breeze from east 4 mph
      Temperature Precip Pressure Wind  
Sunday
01/30/2022
04:00 10:00 30°F   30.18 inHg Light breeze from east 5 mph
  10:00 16:00 52°F   30.17 inHg Light air from southwest 1 mph
  16:00 22:00 48°F   30.10 inHg Light air from west-southwest 3 mph
  22:00 04:00 37°F   30.10 inHg Light air from east 3 mph
      Temperature Precip Pressure Wind  
Monday
01/31/2022
04:00 10:00 41°F 0.37 in 30.04 inHg Light breeze from southeast 5 mph

NOAA Local Storm Report
4 MILES NORTHWEST OF ZAMORA   ( More )
DATE
01/21/2022
TIME
1:41 PM
COUNTY
YOLO
STATE
CA
GEOGRAPHIC
38.84N 121.92W
SOURCE
LAW ENFORCEMENT
NON-THUNDERSTORM WIND DAMAGE
large tree limb blocking a lane.
How Close Are We To this Month's Temperature Record ?
Updated Saturday, Jan 22, 2022- 6:35:01 AM

Current Temperature: 45.5°F

January's High: Temperature Record 71.3°F - Set on Sat, Jan 24, 2015 - 3:19:00 PM
We are currently 25.8°F Less than this Month's record High

January's Low: Temperature Record 24.7°F - Set on Sun, Jan 13, 2013 - 7:29:00 AM
We are currently 20.8°F More than this Month's record Low

Weather History N/A


On this Day - In Weather History ...
Data courtesy of weatherforyou.com
powered by Cumulus v1.9.3 (1059)
Ambient Weather VWS v14.00
Top Website Map Copyright © 2007 - 2022 Foresthillweather.com Never base important decisions on this or any weather information obtained from the Internet